Boonton, New Jersey, United States (07005)
Lat: 40.90N, Lon: 74.41W
Wx Zone: NJZ008
Local Info
Past Weather Observations for Saturday, April 25, 2015

NOTE: This archive is for the closest National Weather Service station to Boonton. Information may differ from the station used for current weather conditions.

Click here for Long-term Archive

Time Weather Temperature Dewpoint Humidity Pressure Winds Precip Visibility
23:53
Clear
48°F / 9°C 27°F / -3°C 43% 29.71 in
(1006 mb)
Calm - 10SM
22:53
Clear
48°F / 9°C 25°F / -4°C 40% 29.71 in
(1006 mb)
N 4.6 mph
(N 7 kph)
- 10SM
21:53
Clear
50°F / 10°C 25°F / -4°C 37% 29.71 in
(1006 mb)
NE 6.9 mph
(NE 11 kph)
- 10SM
20:53
Clear
50°F / 10°C 27°F / -3°C 40% 29.71 in
(1006 mb)
Calm - 10SM
19:53
Clear
54°F / 12°C 23°F / -5°C 30% 29.71 in
(1006 mb)
Calm - 10SM
18:53
Clear
55°F / 13°C 21°F / -6°C 26% 29.71 in
(1006 mb)
Calm - 10SM
17:53
Clear
59°F / 15°C 19°F / -7°C 21% 29.68 in
(1005 mb)
NW 4.6 mph
(NW 7 kph)
- 10SM
16:53
Clear
59°F / 15°C 21°F / -6°C 23% 29.71 in
(1006 mb)
NW 8.1 mph
(NW 13 kph)
- 10SM
15:53
Clear
59°F / 15°C 21°F / -6°C 23% 29.71 in
(1006 mb)
Variable 5.8 mph
(Variable 9 kph)
- 10SM
14:53
Clear
57°F / 14°C 21°F / -6°C 25% 29.71 in
(1006 mb)
Calm - 10SM
13:53
Clear
57°F / 14°C 21°F / -6°C 25% 29.74 in
(1007 mb)
WNW 10.4 mph
(WNW 17 kph)
- 10SM
12:53
Clear
55°F / 13°C 21°F / -6°C 26% 29.8 in
(1009 mb)
WNW 5.8 mph
(WNW 9 kph)
- 10SM
11:53
Clear
54°F / 12°C 23°F / -5°C 30% 29.83 in
(1010 mb)
NW 9.2 mph
(NW 15 kph)
- 10SM
10:53
Clear
50°F / 10°C 21°F / -6°C 32% 29.86 in
(1011 mb)
WNW 10.4 mph
(WNW 17 kph)
- 10SM
09:53
Clear
48°F / 9°C 23°F / -5°C 37% 29.89 in
(1012 mb)
Variable 5.8 mph
(Variable 9 kph)
- 10SM
08:53
Clear
45°F / 7°C 21°F / -6°C 39% 29.89 in
(1012 mb)
NW 11.5 mph
(NW 19 kph)
- 10SM
07:53
Clear
43°F / 6°C 21°F / -6°C 42% 29.92 in
(1013 mb)
NW 10.4 mph
(NW 17 kph)
- 10SM
06:53
Clear
39°F / 4°C 21°F / -6°C 48% 29.95 in
(1014 mb)
WNW 9.2 mph
(WNW 15 kph)
- 10SM
05:53
Clear
36°F / 2°C 23°F / -5°C 60% 29.95 in
(1014 mb)
S 3.5 mph
(S 6 kph)
- 10SM
04:53
Clear
34°F / 1°C 23°F / -5°C 65% 29.95 in
(1014 mb)
Calm - 10SM
03:53
Clear
36°F / 2°C 21°F / -6°C 56% 29.95 in
(1014 mb)
Calm - 10SM
02:53
Clear
36°F / 2°C 19°F / -7°C 52% 29.92 in
(1013 mb)
SSW 4.6 mph
(SSW 7 kph)
- 10SM
01:53
Clear
36°F / 2°C 21°F / -6°C 56% 29.92 in
(1013 mb)
WNW 5.8 mph
(WNW 9 kph)
- 10SM
00:53
Clear
36°F / 2°C 21°F / -6°C 56% 29.95 in
(1014 mb)
NW 4.6 mph
(NW 7 kph)
- 10SM
Time Weather Temperature Dewpoint Humidity Pressure Winds Precip Visibility


Weather for websites

WeatherForYou.com, LLC is not responsible for any damages or problems caused by this service. Current weather conditions are obtained from the closest station including government and personal stations which may have varying degrees of accuracy. Weather forecasts are derived from the NOAA NDFD. Like all things, this site belongs to Jesus Christ... He just trusts us to maintain it. If you have any questions or comments email webmaster@weatherforyou.com

Copyright © 2015, WeatherForYou.com LLC. All rights reserved.